| time (UTC) | temp F | wind direction | speed MPH | gust MPH | rain 1hr in | rain 24hr in | rain mn in | humidity % | barometer mb |
| 20260901143509 | 73 | 2 | 1.0 | 2.0 | 0.00 | 0.00 | 0.00 | 49 | 1022.9 |
| 20260901143015 | 73 | 340 | 0.0 | 2.0 | 0.00 | 0.00 | 0.00 | 50 | 1022.8 |
| 20260901142510 | 74 | 79 | 0.0 | 2.0 | 0.00 | 0.00 | 0.00 | 49 | 1022.9 |
| 20260901142011 | 74 | 61 | 0.0 | 2.0 | 0.00 | 0.00 | 0.00 | 49 | 1023.0 |
| 20260901141512 | 74 | 330 | 0.0 | 2.0 | 0.00 | 0.00 | 0.00 | 50 | 1023.0 |
| 20260901141011 | 73 | 6 | 0.0 | 3.0 | 0.00 | 0.00 | 0.00 | 49 | 1023.0 |
| 20260901140508 | 73 | 32 | 1.0 | 3.0 | 0.00 | 0.00 | 0.00 | 49 | 1023.0 |
| 20260901140020 | 74 | 68 | 1.0 | 4.0 | 0.00 | 0.00 | 0.00 | 51 | 1023.0 |
| 20260901135510 | 73 | 20 | 0.0 | 4.0 | 0.00 | 0.00 | 0.00 | 50 | 1023.1 |
| 20260901135014 | 73 | 290 | 1.0 | 4.0 | 0.00 | 0.00 | 0.00 | 49 | 1023.2 |
| 20260901134518 | 72 | 19 | 0.0 | 3.0 | 0.00 | 0.00 | 0.00 | 49 | 1023.2 |
| 20260901134011 | 72 | 200 | 0.0 | 3.0 | 0.00 | 0.00 | 0.00 | 49 | 1023.4 |
| 20260901133511 | 72 | 290 | 2.0 | 3.0 | 0.00 | 0.00 | 0.00 | 49 | 1023.4 |
| 20260901133028 | 72 | 307 | 1.0 | 3.0 | 0.00 | 0.00 | 0.00 | 52 | 1023.5 |
| 20260901132511 | 72 | 24 | 1.0 | 3.0 | 0.00 | 0.00 | 0.00 | 51 | 1023.5 |
| 20260901132011 | 71 | 127 | 1.0 | 3.0 | 0.00 | 0.00 | 0.00 | 50 | 1023.5 |
| 20260901131521 | 71 | 302 | 1.0 | 6.0 | 0.00 | 0.00 | 0.00 | 50 | 1023.5 |
| 20260901131003 | 72 | 323 | 1.0 | 6.0 | 0.00 | 0.00 | 0.00 | 50 | 1023.5 |
| 20260901130503 | 72 | 22 | 1.0 | 3.0 | 0.00 | 0.00 | 0.00 | 52 | 1023.5 |
| 20260901130009 | 72 | 315 | 1.0 | 3.0 | 0.00 | 0.00 | 0.00 | 52 | 1023.6 |
| 20260901125507 | 72 | 68 | 0.0 | 4.0 | 0.00 | 0.00 | 0.00 | 50 | 1023.6 |
| 20260901125007 | 72 | 330 | 0.0 | 4.0 | 0.00 | 0.00 | 0.00 | 53 | 1023.6 |
| 20260901124510 | 71 | 290 | 2.0 | 4.0 | 0.00 | 0.00 | 0.00 | 55 | 1023.6 |
| 20260901124003 | 70 | 279 | 1.0 | 5.0 | 0.00 | 0.00 | 0.00 | 54 | 1023.7 |
| 20260901123503 | 71 | 313 | 2.0 | 5.0 | 0.00 | 0.00 | 0.00 | 55 | 1023.7 |
| 20260901123007 | 71 | 86 | 1.0 | 3.0 | 0.00 | 0.00 | 0.00 | 55 | 1023.8 |
| 20260901122503 | 70 | 297 | 1.0 | 4.0 | 0.00 | 0.00 | 0.00 | 54 | 1023.9 |
| 20260901122003 | 71 | 335 | 1.0 | 5.0 | 0.00 | 0.00 | 0.00 | 55 | 1023.9 |
| 20260901121507 | 71 | 32 | 2.0 | 5.0 | 0.00 | 0.00 | 0.00 | 57 | 1023.9 |
| 20260901121006 | 71 | 307 | 0.0 | 4.0 | 0.00 | 0.00 | 0.00 | 54 | 1023.9 |
| 20260901120507 | 71 | 272 | 0.0 | 4.0 | 0.00 | 0.00 | 0.00 | 55 | 1023.9 |
| 20260901120014 | 71 | 333 | 1.0 | 4.0 | 0.00 | 0.00 | 0.00 | 57 | 1023.9 |
| 20260901115512 | 70 | 348 | 1.0 | 4.0 | 0.00 | 0.00 | 0.00 | 57 | 1024.0 |
| 20260901115007 | 70 | 338 | 1.0 | 4.0 | 0.00 | 0.00 | 0.00 | 55 | 1024.0 |
| 20260901114513 | 71 | 41 | 1.0 | 5.0 | 0.00 | 0.00 | 0.00 | 57 | 1024.0 |
| 20260901114012 | 70 | 91 | 1.0 | 5.0 | 0.00 | 0.00 | 0.00 | 56 | 1024.0 |
| 20260901113509 | 70 | 324 | 2.0 | 4.0 | 0.00 | 0.00 | 0.00 | 56 | 1024.0 |
| 20260901113012 | 70 | 347 | 1.0 | 3.0 | 0.00 | 0.00 | 0.00 | 55 | 1024.1 |
| 20260901112506 | 70 | 58 | 0.0 | 3.0 | 0.00 | 0.00 | 0.00 | 55 | 1024.0 |
| 20260901112004 | 70 | 73 | 1.0 | 3.0 | 0.00 | 0.00 | 0.00 | 55 | 1024.1 |
| 20260901111506 | 70 | 324 | 1.0 | 3.0 | 0.00 | 0.00 | 0.00 | 55 | 1024.1 |
| 20260901111004 | 71 | 27 | 0.0 | 3.0 | 0.00 | 0.00 | 0.00 | 56 | 1024.1 |
| 20260901110504 | 71 | 324 | 1.0 | 3.0 | 0.00 | 0.00 | 0.00 | 57 | 1024.1 |
| 20260901110009 | 71 | 288 | 0.0 | 4.0 | 0.00 | 0.00 | 0.00 | 55 | 1024.1 |
| 20260901105508 | 70 | 145 | 0.0 | 4.0 | 0.00 | 0.00 | 0.00 | 56 | 1024.2 |
| 20260901105007 | 70 | 317 | 1.0 | 4.0 | 0.00 | 0.00 | 0.00 | 57 | 1024.2 |
| 20260901104530 | 70 | 20 | 1.0 | 5.0 | 0.00 | 0.00 | 0.00 | 56 | 1024.3 |
| 20260901104011 | 70 | 68 | 1.0 | 5.0 | 0.00 | 0.00 | 0.00 | 57 | 1024.3 |
| 20260901103512 | 69 | 71 | 0.0 | 2.0 | 0.00 | 0.00 | 0.00 | 57 | 1024.4 |
| 20260901103014 | 69 | 48 | 0.0 | 4.0 | 0.00 | 0.00 | 0.00 | 55 | 1024.4 |
| 20260901102511 | 68 | 77 | 1.0 | 4.0 | 0.00 | 0.00 | 0.00 | 56 | 1024.4 |
| 20260901102008 | 69 | 324 | 0.0 | 3.0 | 0.00 | 0.00 | 0.00 | 57 | 1024.4 |
| 20260901101519 | 68 | 50 | 0.0 | 3.0 | 0.00 | 0.00 | 0.00 | 58 | 1024.4 |
| 20260901101008 | 68 | 91 | 0.0 | 3.0 | 0.00 | 0.00 | 0.00 | 57 | 1024.5 |
| 20260901100508 | 68 | 60 | 1.0 | 3.0 | 0.00 | 0.00 | 0.00 | 58 | 1024.5 |
| 20260901100008 | 67 | 114 | 1.0 | 2.0 | 0.00 | 0.00 | 0.00 | 56 | 1024.5 |
| 20260901095505 | 67 | 82 | 0.0 | 2.0 | 0.00 | 0.00 | 0.00 | 58 | 1024.6 |
| 20260901095008 | 67 | 58 | 1.0 | 2.0 | 0.00 | 0.00 | 0.00 | 60 | 1024.6 |
| 20260901094511 | 67 | 94 | 0.0 | 2.0 | 0.00 | 0.00 | 0.00 | 61 | 1024.6 |
| 20260901094008 | 67 | 92 | 1.0 | 2.0 | 0.00 | 0.00 | 0.00 | 63 | 1024.7 |
| 20260901093509 | 67 | 68 | 1.0 | 2.0 | 0.00 | 0.00 | 0.00 | 63 | 1024.6 |
| 20260901093014 | 67 | 68 | 0.0 | 2.0 | 0.00 | 0.00 | 0.00 | 62 | 1024.6 |
| 20260901092511 | 66 | 340 | 0.0 | 2.0 | 0.00 | 0.00 | 0.00 | 61 | 1024.7 |
| 20260901092013 | 67 | 354 | 1.0 | 2.0 | 0.00 | 0.00 | 0.00 | 61 | 1024.6 |
| 20260901091519 | 67 | 65 | 0.0 | 2.0 | 0.00 | 0.00 | 0.00 | 61 | 1024.6 |
| 20260901091010 | 67 | 100 | 0.0 | 2.0 | 0.00 | 0.00 | 0.00 | 62 | 1024.6 |
| 20260901090511 | 67 | 56 | 0.0 | 2.0 | 0.00 | 0.00 | 0.00 | 64 | 1024.6 |
| 20260901090029 | 66 | 104 | 0.0 | 2.0 | 0.00 | 0.00 | 0.00 | 64 | 1024.6 |
| 20260901085509 | 66 | 79 | 1.0 | 2.0 | 0.00 | 0.00 | 0.00 | 63 | 1024.6 |
| 20260901085009 | 66 | 71 | 1.0 | 2.0 | 0.00 | 0.00 | 0.00 | 66 | 1024.6 |
| 20260901084522 | 66 | 93 | 0.0 | 3.0 | 0.00 | 0.00 | 0.00 | 63 | 1024.6 |
| 20260901084009 | 66 | 84 | 0.0 | 4.0 | 0.00 | 0.00 | 0.00 | 67 | 1024.5 |
| 20260901083507 | 66 | 30 | 1.0 | 4.0 | 0.00 | 0.00 | 0.00 | 63 | 1024.4 |
| 20260901083012 | 67 | 84 | 0.0 | 3.0 | 0.00 | 0.00 | 0.00 | 64 | 1024.3 |
| 20260901082510 | 66 | 100 | 1.0 | 2.0 | 0.00 | 0.00 | 0.00 | 65 | 1024.4 |
| 20260901082009 | 66 | 90 | 1.0 | 2.0 | 0.00 | 0.00 | 0.00 | 64 | 1024.4 |
| 20260901081522 | 66 | 69 | 0.0 | 3.0 | 0.00 | 0.00 | 0.00 | 64 | 1024.4 |
| 20260901081010 | 65 | 84 | 1.0 | 3.0 | 0.00 | 0.00 | 0.00 | 64 | 1024.3 |
| 20260901080513 | 65 | 101 | 2.0 | 3.0 | 0.00 | 0.00 | 0.00 | 65 | 1024.2 |
| 20260901080030 | 65 | 115 | 2.0 | 3.0 | 0.00 | 0.00 | 0.00 | 64 | 1024.2 |
| 20260901075512 | 65 | 85 | 0.0 | 2.0 | 0.00 | 0.00 | 0.00 | 64 | 1024.1 |
| 20260901075012 | 65 | 73 | 1.0 | 3.0 | 0.00 | 0.00 | 0.00 | 64 | 1024.1 |
| 20260901074519 | 64 | 128 | 1.0 | 3.0 | 0.00 | 0.00 | 0.00 | 67 | 1024.1 |
| 20260901074012 | 64 | 103 | 1.0 | 3.0 | 0.00 | 0.00 | 0.00 | 66 | 1024.1 |
| 20260901073515 | 64 | 83 | 1.0 | 3.0 | 0.00 | 0.00 | 0.00 | 68 | 1024.1 |
| 20260901073024 | 64 | 104 | 1.0 | 3.0 | 0.00 | 0.00 | 0.00 | 69 | 1024.1 |
| 20260901072508 | 63 | 99 | 1.0 | 4.0 | 0.00 | 0.00 | 0.00 | 69 | 1024.1 |
| 20260901072010 | 63 | 94 | 2.0 | 4.0 | 0.00 | 0.00 | 0.00 | 68 | 1024.2 |
| 20260901071512 | 62 | 91 | 2.0 | 3.0 | 0.00 | 0.00 | 0.00 | 70 | 1024.2 |
| 20260901071013 | 62 | 89 | 2.0 | 3.0 | 0.00 | 0.00 | 0.00 | 70 | 1024.2 |
| 20260901070512 | 62 | 89 | 1.0 | 3.0 | 0.00 | 0.00 | 0.00 | 70 | 1024.3 |
| 20260901070021 | 61 | 88 | 1.0 | 3.0 | 0.00 | 0.00 | 0.00 | 69 | 1024.3 |
| 20260901065513 | 61 | 86 | 2.0 | 3.0 | 0.00 | 0.00 | 0.00 | 69 | 1024.3 |
| 20260901065011 | 62 | 98 | 1.0 | 3.0 | 0.00 | 0.00 | 0.00 | 70 | 1024.3 |
| 20260901064525 | 62 | 129 | 0.0 | 1.0 | 0.00 | 0.00 | 0.00 | 70 | 1024.2 |
| 20260901064013 | 61 | 69 | 0.0 | 2.0 | 0.00 | 0.00 | 0.00 | 70 | 1024.3 |
| 20260901063512 | 61 | 103 | 0.0 | 2.0 | 0.00 | 0.00 | 0.00 | 69 | 1024.3 |
| 20260901063003 | 61 | 109 | 0.0 | 2.0 | 0.00 | 0.00 | 0.00 | 70 | 1024.2 |
| 20260901062507 | 61 | 98 | 0.0 | 2.0 | 0.00 | 0.00 | 0.00 | 69 | 1024.2 |
| 20260901062005 | 62 | 94 | 0.0 | 1.0 | 0.00 | 0.00 | 0.00 | 70 | 1024.2 |
| 20260901061508 | 61 | 91 | 0.0 | 1.0 | 0.00 | 0.00 | 0.00 | 69 | 1024.1 |
| 20260901061010 | 62 | 106 | 0.0 | 1.0 | 0.00 | 0.00 | 0.00 | 69 | 1024.1 |
| 20260901060510 | 61 | 106 | 0.0 | 1.0 | 0.00 | 0.00 | 0.00 | 70 | 1024.1 |
| 20260901060017 | 60 | 106 | 0.0 | 1.0 | 0.00 | 0.00 | 0.00 | 72 | 1024.1 |
| 20260901055511 | 59 | 106 | 0.0 | 1.0 | 0.00 | 0.00 | 0.00 | 72 | 1024.0 |
| 20260901055011 | 59 | 139 | 0.0 | 1.0 | 0.00 | 0.00 | 0.00 | 74 | 1024.0 |
| 20260901054506 | 58 | 143 | 0.0 | 2.0 | 0.00 | 0.00 | 0.00 | 75 | 1023.9 |
| 20260901054002 | 57 | 132 | 0.0 | 2.0 | 0.00 | 0.00 | 0.00 | 75 | 1023.9 |
| 20260901053502 | 57 | 116 | 0.0 | 2.0 | 0.00 | 0.00 | 0.00 | 76 | 1023.9 |
| 20260901053002 | 56 | 104 | 0.0 | 1.0 | 0.00 | 0.00 | 0.00 | 77 | 1024.0 |
| 20260901052501 | 56 | 127 | 0.0 | 1.0 | 0.00 | 0.00 | 0.00 | 77 | 1024.0 |
| 20260901052005 | 56 | 127 | 0.0 | 1.0 | 0.00 | 0.00 | 0.00 | 77 | 1023.9 |
| 20260901051508 | 56 | 93 | 0.0 | 1.0 | 0.00 | 0.00 | 0.00 | 76 | 1023.9 |
| 20260901051005 | 56 | 93 | 0.0 | 1.0 | 0.00 | 0.00 | 0.00 | 77 | 1023.9 |
| 20260901050506 | 56 | 134 | 0.0 | 1.0 | 0.00 | 0.00 | 0.00 | 77 | 1023.9 |
| 20260901050011 | 56 | 136 | 0.0 | 1.0 | 0.00 | 0.00 | 0.00 | 76 | 1023.9 |
| 20260901045510 | 57 | 136 | 0.0 | 1.0 | 0.00 | 0.00 | 0.00 | 76 | 1023.9 |
| 20260901045012 | 57 | 115 | 0.0 | 1.0 | 0.00 | 0.00 | 0.00 | 76 | 1024.0 |
| 20260901044517 | 57 | 122 | 0.0 | 2.0 | 0.00 | 0.00 | 0.00 | 76 | 1023.9 |
| 20260901044011 | 57 | 98 | 0.0 | 2.0 | 0.00 | 0.00 | 0.00 | 76 | 1023.9 |
| 20260901043511 | 56 | 91 | 0.0 | 2.0 | 0.00 | 0.00 | 0.00 | 76 | 1023.9 |
| 20260901043028 | 57 | 114 | 0.0 | 1.0 | 0.00 | 0.00 | 0.00 | 76 | 1023.9 |
| 20260901042503 | 57 | 105 | 0.0 | 3.0 | 0.00 | 0.00 | 0.00 | 76 | 1023.9 |
| 20260901042002 | 57 | 114 | 0.0 | 3.0 | 0.00 | 0.00 | 0.00 | 76 | 1023.9 |
| 20260901041503 | 56 | 84 | 0.0 | 2.0 | 0.00 | 0.00 | 0.00 | 77 | 1023.9 |
| 20260901041005 | 56 | 113 | 0.0 | 2.0 | 0.00 | 0.00 | 0.00 | 77 | 1023.9 |
| 20260901040505 | 56 | 109 | 0.0 | 2.0 | 0.00 | 0.00 | 0.00 | 78 | 1024.0 |
| 20260901040007 | 56 | 124 | 0.0 | 1.0 | 0.00 | 0.00 | 0.00 | 78 | 1024.0 |
| 20260901035506 | 56 | 145 | 0.0 | 1.0 | 0.00 | 0.00 | 0.00 | 78 | 1024.0 |
| 20260901035010 | 56 | 91 | 0.0 | 2.0 | 0.00 | 0.00 | 0.00 | 78 | 1024.0 |
| 20260901034515 | 56 | 101 | 0.0 | 2.0 | 0.00 | 0.00 | 0.00 | 78 | 1023.9 |
| 20260901034012 | 56 | 115 | 0.0 | 2.0 | 0.00 | 0.00 | 0.00 | 78 | 1023.8 |
| 20260901033510 | 56 | 84 | 0.0 | 4.0 | 0.00 | 0.00 | 0.00 | 78 | 1023.8 |
| 20260901033021 | 56 | 106 | 0.0 | 4.0 | 0.00 | 0.00 | 0.00 | 78 | 1023.9 |
| 20260901032514 | 56 | 96 | 2.0 | 4.0 | 0.00 | 0.00 | 0.00 | 78 | 1024.0 |
| 20260901032014 | 56 | 95 | 2.0 | 4.0 | 0.00 | 0.00 | 0.00 | 78 | 1024.0 |
| 20260901031534 | 56 | 98 | 1.0 | 2.0 | 0.00 | 0.00 | 0.00 | 78 | 1024.0 |
| 20260901031019 | 57 | 4 | 0.0 | 4.0 | 0.00 | 0.00 | 0.00 | 77 | 1024.1 |
| 20260901030505 | 56 | 109 | 3.0 | 4.0 | 0.00 | 0.00 | 0.00 | 78 | 1024.1 |
| 20260901030004 | 56 | 120 | 1.0 | 4.0 | 0.00 | 0.00 | 0.00 | 79 | 1024.1 |
| 20260901025502 | 56 | 125 | 1.0 | 4.0 | 0.00 | 0.00 | 0.00 | 79 | 1024.2 |
| 20260901025004 | 56 | 89 | 1.0 | 4.0 | 0.00 | 0.00 | 0.00 | 79 | 1024.2 |
| 20260901024510 | 56 | 129 | 1.0 | 4.0 | 0.00 | 0.00 | 0.00 | 79 | 1024.3 |
| 20260901024007 | 56 | 83 | 0.0 | 1.0 | 0.00 | 0.00 | 0.00 | 80 | 1024.3 |
| 20260901023507 | 56 | 214 | 0.0 | 1.0 | 0.00 | 0.00 | 0.00 | 80 | 1024.4 |
| 20260901023023 | 56 | 345 | 0.0 | 3.0 | 0.00 | 0.00 | 0.00 | 80 | 1024.3 |
| 20260901022514 | 56 | 107 | 0.0 | 3.0 | 0.00 | 0.00 | 0.00 | 80 | 1024.3 |
| 20260901022011 | 56 | 120 | 1.0 | 3.0 | 0.00 | 0.00 | 0.00 | 81 | 1024.4 |
| 20260901021521 | 56 | 68 | 1.0 | 3.0 | 0.00 | 0.00 | 0.00 | 81 | 1024.4 |
| 20260901021012 | 56 | 91 | 0.0 | 4.0 | 0.00 | 0.00 | 0.00 | 80 | 1024.4 |
| 20260901020515 | 57 | 101 | 2.0 | 4.0 | 0.00 | 0.00 | 0.00 | 81 | 1024.4 |
| 20260901020031 | 57 | 76 | 1.0 | 2.0 | 0.00 | 0.00 | 0.00 | 81 | 1024.4 |
| 20260901015515 | 57 | 84 | 0.0 | 2.0 | 0.00 | 0.00 | 0.00 | 81 | 1024.3 |
| 20260901015016 | 57 | 93 | 1.0 | 2.0 | 0.00 | 0.00 | 0.00 | 81 | 1024.4 |
| 20260901014507 | 57 | 112 | 0.0 | 1.0 | 0.00 | 0.00 | 0.00 | 81 | 1024.4 |
| 20260901014003 | 57 | 79 | 1.0 | 1.0 | 0.00 | 0.00 | 0.00 | 81 | 1024.4 |
| 20260901013505 | 57 | 89 | 0.0 | 1.0 | 0.00 | 0.00 | 0.00 | 81 | 1024.4 |
| 20260901013025 | 58 | 90 | 0.0 | 1.0 | 0.00 | 0.00 | 0.00 | 80 | 1024.5 |
| 20260901012510 | 58 | 86 | 0.0 | 2.0 | 0.00 | 0.00 | 0.00 | 80 | 1024.5 |
| 20260901012009 | 58 | 103 | 1.0 | 2.0 | 0.00 | 0.00 | 0.00 | 81 | 1024.5 |
| 20260901011517 | 57 | 103 | 1.0 | 3.0 | 0.00 | 0.00 | 0.00 | 81 | 1024.5 |
| 20260901011012 | 57 | 109 | 1.0 | 3.0 | 0.00 | 0.00 | 0.00 | 81 | 1024.4 |
| 20260901010513 | 58 | 115 | 1.0 | 2.0 | 0.00 | 0.00 | 0.00 | 81 | 1024.5 |
| 20260901010032 | 57 | 90 | 0.0 | 2.0 | 0.00 | 0.00 | 0.00 | 81 | 1024.5 |
| 20260901005515 | 57 | 77 | 0.0 | 3.0 | 0.00 | 0.00 | 0.00 | 82 | 1024.6 |
| 20260901005014 | 57 | 86 | 1.0 | 3.0 | 0.00 | 0.00 | 0.00 | 82 | 1024.6 |
| 20260901004528 | 57 | 89 | 1.0 | 3.0 | 0.00 | 0.00 | 0.00 | 82 | 1024.6 |
| 20260901004014 | 57 | 102 | 1.0 | 3.0 | 0.00 | 0.00 | 0.00 | 83 | 1024.6 |
| 20260901003516 | 57 | 84 | 0.0 | 2.0 | 0.00 | 0.00 | 0.00 | 83 | 1024.7 |
| 20260901003030 | 57 | 121 | 0.0 | 2.0 | 0.00 | 0.00 | 0.00 | 83 | 1024.8 |
| 20260901002507 | 57 | 88 | 0.0 | 3.0 | 0.00 | 0.00 | 0.00 | 82 | 1024.8 |
| 20260901002008 | 57 | 82 | 0.0 | 3.0 | 0.00 | 0.00 | 0.00 | 83 | 1024.9 |
| 20260901001512 | 57 | 101 | 0.0 | 2.0 | 0.00 | 0.00 | 0.00 | 82 | 1024.8 |
| 20260901001011 | 57 | 91 | 0.0 | 2.0 | 0.00 | 0.00 | 0.00 | 82 | 1024.9 |
| 20260901000511 | 57 | 77 | 0.0 | 2.0 | 0.00 | 0.00 | 0.00 | 82 | 1024.9 |
| 20260901000029 | 57 | 108 | 1.0 | 2.0 | 0.00 | 0.00 | 0.00 | 83 | 1024.9 |
| 20260831235513 | 57 | 136 | 0.0 | 2.0 | 0.00 | 0.00 | 0.00 | 83 | 1024.9 |
| 20260831235015 | 57 | 115 | 0.0 | 1.0 | 0.00 | 0.00 | 0.00 | 83 | 1024.9 |
| 20260831234525 | 57 | 100 | 0.0 | 1.0 | 0.00 | 0.00 | 0.00 | 83 | 1024.9 |
| 20260831234014 | 57 | 127 | 0.0 | 1.0 | 0.00 | 0.00 | 0.00 | 83 | 1024.9 |
| 20260831233518 | 57 | 137 | 0.0 | 1.0 | 0.00 | 0.00 | 0.00 | 83 | 1024.9 |
| 20260831233027 | 57 | 81 | 0.0 | 2.0 | 0.00 | 0.00 | 0.00 | 82 | 1024.9 |
| 20260831232514 | 57 | 83 | 1.0 | 2.0 | 0.00 | 0.00 | 0.00 | 83 | 1025.0 |
| 20260831232018 | 57 | 143 | 0.0 | 1.0 | 0.00 | 0.00 | 0.00 | 83 | 1024.9 |
| 20260831231530 | 58 | 96 | 0.0 | 2.0 | 0.00 | 0.00 | 0.00 | 83 | 1024.9 |
| 20260831231021 | 57 | 136 | 0.0 | 2.0 | 0.00 | 0.00 | 0.00 | 83 | 1024.9 |
| 20260831230508 | 57 | 101 | 0.0 | 2.0 | 0.00 | 0.00 | 0.00 | 83 | 1025.0 |
| 20260831230016 | 57 | 141 | 0.0 | 1.0 | 0.00 | 0.00 | 0.00 | 84 | 1025.0 |
| 20260831225509 | 57 | 91 | 0.0 | 1.0 | 0.00 | 0.00 | 0.00 | 83 | 1024.9 |
| 20260831225010 | 58 | 91 | 0.0 | 1.0 | 0.00 | 0.00 | 0.00 | 83 | 1024.9 |
| 20260831224534 | 58 | 84 | 0.0 | 1.0 | 0.00 | 0.00 | 0.00 | 83 | 1024.9 |
| 20260831224016 | 58 | 84 | 0.0 | 1.0 | 0.00 | 0.00 | 0.00 | 83 | 1024.9 |
| 20260831223514 | 57 | 84 | 0.0 | 1.0 | 0.00 | 0.00 | 0.00 | 83 | 1024.9 |
| 20260831223027 | 58 | 84 | 0.0 | 1.0 | 0.00 | 0.00 | 0.00 | 83 | 1024.9 |
| 20260831222516 | 58 | 84 | 0.0 | 1.0 | 0.00 | 0.00 | 0.00 | 83 | 1024.9 |
| 20260831222018 | 58 | 115 | 0.0 | 1.0 | 0.00 | 0.00 | 0.00 | 83 | 1024.9 |
| 20260831221531 | 58 | 120 | 0.0 | 1.0 | 0.00 | 0.00 | 0.00 | 83 | 1025.0 |
| 20260831221017 | 58 | 113 | 0.0 | 1.0 | 0.00 | 0.00 | 0.00 | 83 | 1025.0 |
| 20260831220515 | 57 | 68 | 0.0 | 1.0 | 0.00 | 0.00 | 0.00 | 84 | 1024.9 |
| 20260831220032 | 58 | 138 | 0.0 | 0.0 | 0.00 | 0.00 | 0.00 | 83 | 1024.9 |
| 20260831215517 | 58 | 138 | 0.0 | 0.0 | 0.00 | 0.00 | 0.00 | 83 | 1024.9 |
| 20260831215008 | 58 | 138 | 0.0 | 0.0 | 0.00 | 0.00 | 0.00 | 83 | 1024.9 |
| 20260831214518 | 58 | 137 | 0.0 | 0.0 | 0.00 | 0.00 | 0.00 | 83 | 1024.9 |
| 20260831214011 | 58 | 137 | 0.0 | 0.0 | 0.00 | 0.00 | 0.00 | 84 | 1024.9 |
| 20260831213516 | 58 | 137 | 0.0 | 1.0 | 0.00 | 0.00 | 0.00 | 83 | 1024.9 |
| 20260831213023 | 58 | 137 | 0.0 | 1.0 | 0.00 | 0.00 | 0.00 | 83 | 1024.9 |
| 20260831212514 | 58 | 138 | 0.0 | 0.0 | 0.00 | 0.00 | 0.00 | 83 | 1025.0 |
| 20260831212016 | 58 | 138 | 0.0 | 0.0 | 0.00 | 0.00 | 0.00 | 83 | 1025.0 |
| 20260831211528 | 59 | 138 | 0.0 | 1.0 | 0.00 | 0.00 | 0.00 | 82 | 1025.0 |
| 20260831211015 | 59 | 139 | 0.0 | 1.0 | 0.00 | 0.00 | 0.00 | 82 | 1024.9 |
| 20260831210517 | 59 | 138 | 0.0 | 1.0 | 0.00 | 0.00 | 0.00 | 82 | 1024.9 |
| 20260831210032 | 59 | 138 | 0.0 | 1.0 | 0.00 | 0.00 | 0.00 | 82 | 1024.9 |
| 20260831205517 | 59 | 112 | 0.0 | 1.0 | 0.00 | 0.00 | 0.00 | 82 | 1024.9 |
| 20260831205022 | 59 | 40 | 0.0 | 1.0 | 0.00 | 0.00 | 0.00 | 82 | 1024.9 |
| 20260831204533 | 59 | 40 | 0.0 | 0.0 | 0.00 | 0.00 | 0.00 | 81 | 1024.9 |
| 20260831204016 | 60 | 41 | 0.0 | 0.0 | 0.00 | 0.00 | 0.00 | 80 | 1024.9 |
| 20260831203517 | 60 | 41 | 0.0 | 1.0 | 0.00 | 0.00 | 0.00 | 80 | 1024.8 |
| 20260831203020 | 60 | 40 | 0.0 | 1.0 | 0.00 | 0.00 | 0.00 | 79 | 1024.7 |
| 20260831202511 | 60 | 40 | 0.0 | 0.0 | 0.00 | 0.00 | 0.00 | 79 | 1024.8 |
| 20260831202012 | 60 | 40 | 0.0 | 1.0 | 0.00 | 0.00 | 0.00 | 79 | 1024.8 |
| 20260831201526 | 60 | 40 | 0.0 | 1.0 | 0.00 | 0.00 | 0.00 | 79 | 1024.8 |
| 20260831201016 | 60 | 323 | 0.0 | 0.0 | 0.00 | 0.00 | 0.00 | 80 | 1024.8 |
| 20260831200513 | 60 | 323 | 0.0 | 0.0 | 0.00 | 0.00 | 0.00 | 79 | 1024.8 |
| 20260831200031 | 60 | 323 | 0.0 | 0.0 | 0.00 | 0.00 | 0.00 | 79 | 1024.7 |
| 20260831195520 | 60 | 309 | 0.0 | 0.0 | 0.00 | 0.00 | 0.00 | 79 | 1024.6 |
| 20260831195017 | 60 | 309 | 0.0 | 0.0 | 0.00 | 0.00 | 0.00 | 78 | 1024.6 |
| 20260831194530 | 61 | 309 | 0.0 | 0.0 | 0.00 | 0.00 | 0.00 | 78 | 1024.6 |
| 20260831194016 | 61 | 309 | 0.0 | 0.0 | 0.00 | 0.00 | 0.00 | 77 | 1024.5 |
| 20260831193518 | 61 | 309 | 0.0 | 1.0 | 0.00 | 0.00 | 0.00 | 76 | 1024.5 |
| 20260831193032 | 62 | 309 | 0.0 | 1.0 | 0.00 | 0.00 | 0.00 | 76 | 1024.5 |
| 20260831192517 | 62 | 310 | 0.0 | 1.0 | 0.00 | 0.00 | 0.00 | 76 | 1024.4 |
| 20260831192016 | 62 | 310 | 0.0 | 1.0 | 0.00 | 0.00 | 0.00 | 76 | 1024.4 |
| 20260831191543 | 62 | 310 | 0.0 | 1.0 | 0.00 | 0.00 | 0.00 | 76 | 1024.3 |
| 20260831191013 | 62 | 304 | 0.0 | 0.0 | 0.00 | 0.00 | 0.00 | 76 | 1024.2 |
| 20260831190513 | 62 | 304 | 0.0 | 2.0 | 0.00 | 0.00 | 0.00 | 76 | 1024.2 |
| 20260831190025 | 62 | 303 | 0.0 | 2.0 | 0.00 | 0.00 | 0.00 | 76 | 1024.2 |
| 20260831185515 | 62 | 303 | 1.0 | 2.0 | 0.00 | 0.00 | 0.00 | 76 | 1024.1 |
| 20260831185003 | 63 | 298 | 0.0 | 1.0 | 0.00 | 0.00 | 0.00 | 75 | 1024.1 |
| 20260831184503 | 63 | 298 | 0.0 | 2.0 | 0.00 | 0.00 | 0.00 | 75 | 1024.1 |
| 20260831184006 | 63 | 300 | 1.0 | 2.0 | 0.00 | 0.00 | 0.00 | 75 | 1024.0 |
| 20260831183504 | 63 | 302 | 1.0 | 2.0 | 0.00 | 0.00 | 0.00 | 75 | 1024.1 |
| 20260831183011 | 63 | 286 | 1.0 | 2.0 | 0.00 | 0.00 | 0.00 | 75 | 1024.0 |
| 20260831182513 | 63 | 289 | 1.0 | 2.0 | 0.00 | 0.00 | 0.00 | 75 | 1024.0 |
| 20260831182010 | 63 | 303 | 0.0 | 2.0 | 0.00 | 0.00 | 0.00 | 74 | 1024.0 |
| 20260831181516 | 63 | 305 | 0.0 | 1.0 | 0.00 | 0.00 | 0.00 | 74 | 1024.0 |
| 20260831181009 | 64 | 295 | 0.0 | 1.0 | 0.00 | 0.00 | 0.00 | 74 | 1023.9 |
| 20260831180509 | 64 | 311 | 0.0 | 2.0 | 0.00 | 0.00 | 0.00 | 73 | 1023.9 |
| 20260831180019 | 64 | 310 | 0.0 | 2.0 | 0.00 | 0.00 | 0.00 | 72 | 1023.9 |
| 20260831175512 | 65 | 317 | 1.0 | 2.0 | 0.00 | 0.00 | 0.00 | 71 | 1023.9 |
| 20260831175014 | 65 | 302 | 0.0 | 3.0 | 0.00 | 0.00 | 0.00 | 71 | 1023.8 |
| 20260831174527 | 65 | 292 | 1.0 | 3.0 | 0.00 | 0.00 | 0.00 | 70 | 1023.8 |
| 20260831174019 | 66 | 293 | 1.0 | 3.0 | 0.00 | 0.00 | 0.00 | 69 | 1023.8 |
| 20260831173516 | 67 | 306 | 1.0 | 3.0 | 0.00 | 0.00 | 0.00 | 69 | 1023.9 |
| 20260831173008 | 67 | 303 | 1.0 | 3.0 | 0.00 | 0.00 | 0.00 | 68 | 1023.9 |
| 20260831172504 | 67 | 308 | 2.0 | 3.0 | 0.00 | 0.00 | 0.00 | 67 | 1023.8 |
| 20260831172009 | 67 | 317 | 2.0 | 4.0 | 0.00 | 0.00 | 0.00 | 67 | 1023.9 |
| 20260831171515 | 67 | 293 | 1.0 | 4.0 | 0.00 | 0.00 | 0.00 | 68 | 1023.9 |
| 20260831171009 | 67 | 306 | 1.0 | 4.0 | 0.00 | 0.00 | 0.00 | 68 | 1023.9 |
| 20260831170508 | 66 | 242 | 1.0 | 3.0 | 0.00 | 0.00 | 0.00 | 69 | 1024.0 |
| 20260831170024 | 67 | 291 | 2.0 | 3.0 | 0.00 | 0.00 | 0.00 | 68 | 1024.0 |
| 20260831165511 | 67 | 328 | 0.0 | 2.0 | 0.00 | 0.00 | 0.00 | 68 | 1024.0 |
| 20260831165010 | 67 | 333 | 0.0 | 1.0 | 0.00 | 0.00 | 0.00 | 70 | 1023.9 |
| 20260831164536 | 67 | 58 | 0.0 | 1.0 | 0.00 | 0.00 | 0.00 | 70 | 1024.0 |
| 20260831164013 | 67 | 58 | 0.0 | 3.0 | 0.00 | 0.00 | 0.00 | 70 | 1024.0 |
| 20260831163512 | 66 | 271 | 1.0 | 3.0 | 0.00 | 0.00 | 0.00 | 70 | 1024.0 |
| 20260831163031 | 66 | 304 | 0.0 | 3.0 | 0.00 | 0.00 | 0.00 | 70 | 1024.0 |
| 20260831162514 | 66 | 269 | 1.0 | 4.0 | 0.00 | 0.00 | 0.00 | 69 | 1024.0 |
| 20260831162016 | 66 | 326 | 1.0 | 5.0 | 0.00 | 0.00 | 0.00 | 69 | 1024.0 |
| 20260831161508 | 67 | 274 | 1.0 | 5.0 | 0.00 | 0.00 | 0.00 | 68 | 1024.0 |
| 20260831161003 | 67 | 302 | 2.0 | 5.0 | 0.00 | 0.00 | 0.00 | 65 | 1023.9 |
| 20260831160507 | 67 | 302 | 0.0 | 3.0 | 0.00 | 0.00 | 0.00 | 67 | 1024.0 |
| 20260831160015 | 67 | 295 | 1.0 | 5.0 | 0.00 | 0.00 | 0.00 | 68 | 1024.0 |
| 20260831155514 | 67 | 296 | 1.0 | 5.0 | 0.00 | 0.00 | 0.00 | 67 | 1024.0 |
| 20260831155010 | 68 | 304 | 2.0 | 6.0 | 0.00 | 0.00 | 0.00 | 67 | 1024.1 |
| 20260831154544 | 69 | 305 | 3.0 | 6.0 | 0.00 | 0.00 | 0.00 | 64 | 1024.0 |
| 20260831154011 | 69 | 46 | 1.0 | 5.0 | 0.00 | 0.00 | 0.00 | 66 | 1024.0 |
| 20260831153515 | 68 | 307 | 2.0 | 5.0 | 0.00 | 0.00 | 0.00 | 66 | 1024.1 |
| 20260831153026 | 68 | 297 | 1.0 | 5.0 | 0.00 | 0.00 | 0.00 | 67 | 1024.1 |
| 20260831152513 | 67 | 296 | 2.0 | 5.0 | 0.00 | 0.00 | 0.00 | 66 | 1024.1 |
| 20260831152014 | 67 | 335 | 2.0 | 5.0 | 0.00 | 0.00 | 0.00 | 67 | 1024.1 |
| 20260831151533 | 68 | 297 | 0.0 | 6.0 | 0.00 | 0.00 | 0.00 | 67 | 1024.1 |
| 20260831151016 | 67 | 281 | 1.0 | 6.0 | 0.00 | 0.00 | 0.00 | 66 | 1024.1 |
| 20260831150516 | 67 | 308 | 1.0 | 5.0 | 0.00 | 0.00 | 0.00 | 66 | 1024.1 |
| 20260831150035 | 67 | 321 | 3.0 | 5.0 | 0.00 | 0.00 | 0.00 | 66 | 1024.1 |
| 20260831145505 | 68 | 294 | 3.0 | 7.0 | 0.00 | 0.00 | 0.00 | 64 | 1024.1 |
| 20260831145008 | 67 | 300 | 2.0 | 7.0 | 0.00 | 0.00 | 0.00 | 65 | 1024.1 |
| 20260831144516 | 68 | 306 | 4.0 | 7.0 | 0.00 | 0.00 | 0.00 | 64 | 1024.1 |
| 20260831144008 | 69 | 309 | 3.0 | 4.0 | 0.00 | 0.00 | 0.00 | 64 | 1024.1 |